Location: *
(18.5200°S, 46.4500°E)
Time: 00:32:37
(UTC+00:00)

AQUARIUS - Pass Details

Date: 19 July 2019
Orbit: 650 x 653 km, 98.0° (Epoch: 20 August)

Event Time Altitude Azimuth Distance (km) Brightness Sun altitude
Rises 15:08:58 0° 172° (S) 2,990 7.3 -8.4°
Reaches altitude 10° 15:11:12 10° 174° (S) 2,073 6.5 -8.9°
Maximum altitude 15:15:42 71° 257° (WSW) 695 4.5 -9.9°
Drops below altitude 10° 15:20:09 10° 341° (NNW) 2,052 7.3 -10.9°
Sets 15:22:21 0° 343° (NNW) 2,956 8.1 -11.4°
